Tracking 20369 objects as of 17-Feb-2020
HD Live streaming from Space Station
objects crossing your sky now

RADUGA 17

Track RADUGA 17 now!
RADUGA 17 is classified as:


NORAD ID: 16250
Int'l Code: 1985-107A
Perigee: 35,791.3 km
Apogee: 35,859.2 km
Inclination: 13.3 °
Period: 1,437.7 minutes
Semi major axis: 42196 km
RCS: 3.981 m2 (large)
Launch date: November 15, 1985
Source: Commonwealth of Independent States (former USSR) (CIS)
Launch site: TYURATAM MISSILE AND SPACE COMPLEX (TTMTR)
aabbcc
Your satellite tracking list
Your tracking list is empty




NASA's NSSDC Master Catalog

Two Line Element Set (TLE):
1 16250U 85107A   20047.38011687 -.00000308 +00000-0 +00000-0 0  9994
2 16250 013.3478 336.9930 0008045 155.0889 101.1911 01.00159492128509
Source of the keplerian elements: AFSPC